Regional Weather Roundup
Issued by NWS Boston, MA

Current Version | Previous Version | Graphics & Text | Print | Product List | Glossary Off
Versions: 1 2 3 4 5 6 7 8 9 10 11 12 13 14 15 16 17 18 19 20 21 22 23 24 25 26 27 28 29 30 31 32 33 34 35 36 37 38 39 40 41 42 43 44 45 46 47 48 49 50
508 ASUS41 KBOX 250410 RWRBOX REGIONAL WEATHER ROUNDUP NATIONAL WEATHER SERVICE TAUNTON MA 1200 AM EDT SUN JUN 25 2017 NOTE: "FAIR" INDICATES FEW OR NO CLOUDS BELOW 12,000 FEET WITH NO SIGNIFICANT WEATHER AND/OR OBSTRUCTIONS TO VISIBILITY. MAZALL-250500- EASTERN MASSACHUSETTS CITY SKY/WX TMP DP RH WIND PRES REMARKS BOSTON PTCLDY 76 53 44 W14 29.84R BEVERLY CLEAR 71 56 58 W7 29.83R LAWRENCE CLEAR 73 56 54 SW8 29.86R BEDFORD PTCLDY 68 52 56 SW5 29.84R BLUE HILL N/A 69 52 54 W14 29.87R NORWOOD CLEAR 62 59 90 CALM 29.85R MARSHFIELD CLEAR 68 59 73 CALM 29.85R PLYMOUTH CLEAR 64 57 78 CALM 29.86R TAUNTON CLEAR 60 57 89 CALM 29.86R NEW BEDFORD CLEAR 63 58 83 CALM 29.86R $$ MAZALL-250500- CAPE COD AND THE ISLANDS CITY SKY/WX TMP DP RH WIND PRES REMARKS FALMOUTH PTCLDY 66 59 77 CALM 29.87S HYANNIS PTCLDY 71 58 63 W6 29.85R CHATHAM PTCLDY 70 59 68 VRB3 29.86R PROVINCETOWN CLEAR 67 59 75 W9 29.85R NANTUCKET N/A 67 58 72 W12 29.86R MARTHAS VNYRD CLEAR 68 56 65 W6 29.86R $$ MAZALL-250500- CENTRAL AND WESTERN MASSACHUSETTS CITY SKY/WX TMP DP RH WIND PRES REMARKS WORCESTER CLEAR 68 51 54 W14 29.90R FITCHBURG N/A 74 54 49 W7 29.87R ORANGE CLOUDY 70 56 61 W8 29.89R SPRINGFIELD CLOUDY 72 55 53 NW9 29.87R WESTFIELD CLOUDY 72 56 57 MISG N/A NORTH ADAMS CLOUDY 67 54 63 W6 29.90S PITTSFIELD MOCLDY 62 55 77 SW6 29.92S $$ RIZALL-250500- RHODE ISLAND CITY SKY/WX TMP DP RH WIND PRES REMARKS PROVIDENCE PTCLDY 68 58 70 W6 29.87R NEWPORT CLEAR 68 58 70 CALM 29.87R BLOCK ISLAND CLEAR 70 57 63 SW12 29.88S WESTERLY CLEAR 70 62 76 CALM 29.88R $$ CTZALL-250500- CONNECTICUT CITY SKY/WX TMP DP RH WIND PRES REMARKS BRADLEY INTL LGT RAIN 73 56 54 NW10G17 29.90R HARTFORD LGT RAIN 74 58 57 NW12G17 29.90R BRIDGEPORT CLEAR 72 62 71 W5 29.88R DANBURY CLEAR 70 60 70 NW6 29.94R GROTON CLEAR 69 59 70 CALM 29.87R NEW HAVEN NOT AVBL CHESTER FAIR 70 57 64 SW3 29.89R MERIDEN CLOUDY 72 58 61 NW10 29.90R WILLIMANTIC MOCLDY 65 60 84 VRB3 29.90R OXFORD CLOUDY 66 55 68 N9 29.94R $$ MEZ002-015-021-024-NHZ003-005-008-011-012-014-VTZ005-008-250500- NORTHERN NEW ENGLAND CITY SKY/WX TMP DP RH WIND PRES REMARKS PORTLAND ME CLEAR 70 53 54 W7 29.78R BANGOR ME PTCLDY 67 54 63 W5 29.75R CONCORD NH MOCLDY 71 54 54 W7 29.83R MANCHESTER NH CLEAR 72 52 49 W5 29.83R NASHUA NH CLEAR 70 56 61 VRB3 29.85R PORTSMOUTH NH CLEAR 73 54 52 SW10 29.80R JAFFREY NH PTCLDY 67 56 67 S6 29.89R KEENE NH CLOUDY 64 60 87 S5 29.88R BURLINGTON VT CLOUDY 67 53 61 W5 29.85R MT. WASHINGTON FOG 43 43 100 NW53 N/A VSB 1/16WCI 29 $$ NYZ052-076-250500- EASTERN NEW YORK CITY SKY/WX TMP DP RH WIND PRES REMARKS ALBANY MOCLDY 67 55 65 CALM 29.91R NEW YORK CITY PTCLDY 82 58 43 W14 29.88S $$ ANZALL-250500- MARINE OBSERVATIONS STATION/POSITION TIME TEMP WIND PRES VSBY WAVE AIR SEA DIR/SP/G HT/PER (UTC) (F) (DEG/KT/KT) (MB) (MI) (FT/S) BOSTON BUOY 0350 65 56 250/ 10/ 10 1010.0R 2/ 6 BUZZARDS BAY 0300 70 250/ 16/ 16 1011.3R NANTUCKET SOUND 0350 66 1010.6R 1/ 4 MASS BAY-STELLWA 0304 65 59 270/ 10/ 10 1008.6R 2/ 6 ISLE OF SHOALS 0300 75 250/ 15/ 15 1008.6R S OF BLOCK IS 0355 62 N/A 6/10 $$ ......................KEY......................... SKY/WX - SKY CONDITION/PRESENT WEATHER TMP - TEMPERATURE IN FAHRENHEIT DWPT - DEWPOINT IN FAHRENHEIT RH - RELATIVE HUMIDITY IN PERCENT WIND - DIRECTION AND SPEED IN MPH PRES - MEAN SEA LEVEL PRESSURE IN INCHES OF HG WCI - WIND CHILL INDEX VSB - VISIBILITY IN MILES HX - HEAT INDEX TC - TEMPERATURE IN CELSIUS VRB - VARIABLE WIND DIRECTION N/A - NOT AVAILABLE

USA.gov is the U.S. government's official web portal to all federal, state and local government web resources and services.